Flag for U.S.A. Weather past 2 weeks in Abilene, Texas, U.S.A.

Now
98 °F

Sunny.


Feels Like: 101 °F
Forecast: 77 / 96 °F
Wind: 10 mph from Southeast

Location: Abilene Regional Airport

Current Time: Jul 29, 2015 at 3:55:13 PM

Latest Report: Jul 29, 2015 at 2:52 PM


Visibility: 10 mi

Pressure: 29.95 "Hg (28.27 "Hg at 524m altitude)

Humidity: 33%

Dew point: 64 °F

Location of AbileneLocation

Historic Weather in Abilene — Graph

°F

Abilene temperature yesterday

Maximum temperature yesterday: 99 °F (at 4:52 PM)
Minimum temperature yesterday: 76 °F (at 6:52 AM)
Average temperature yesterday: 87 °F

Past Weeks' High & Low Weather Summary

 TemperatureHumidityPressure
High99 °F (Jul 26, 4:52 PM)85% (Jul 18, 6:52 AM)30.01 "Hg (Jul 18, 6:52 AM)
Low71 °F (Jul 16, 6:52 AM)31% (Jul 24, 4:52 PM)29.74 "Hg (Jul 21, 6:52 PM)
Average86 °F55%29.86 "Hg
* Reported Jul 14 2:52 PM — Jul 29 2:52 PM, Abilene, Weather by CustomWeather, © 2015

Note: Actual official high and low records may vary slightly from our data, if they occured in-between our weather recording intervals... More about our weather records

Advertising

Abilene weather history for previous 24 hours

 ConditionsComfort  
Time TempWeatherWind HumidityBarometerVisibility
2:52 PM
Wed, Jul 29
98 °FSunny.10 mph33%29.95 "Hg10 mi
1:52 PM98 °FSunny.6 mph33%29.97 "Hg10 mi
12:52 PM94 °FSunny.3 mph44%29.99 "Hg10 mi
11:52 AM92 °FPassing clouds.3 mph47%30.00 "Hg10 mi
10:52 AM88 °FSunny.6 mph55%30.01 "Hg10 mi
9:52 AM84 °FPassing clouds.9 mph63%30.00 "Hg10 mi
8:52 AM81 °FPassing clouds.5 mph69%29.99 "Hg9 mi
7:52 AM78 °FScattered clouds.No wind74%29.97 "Hg9 mi
6:52 AM76 °FClear.5 mph74%29.94 "Hg10 mi
5:52 AM78 °FClear.8 mph69%29.93 "Hg10 mi
4:52 AM79 °FClear.8 mph62%29.92 "Hg10 mi
3:52 AM80 °FClear.10 mph58%29.91 "Hg10 mi
2:52 AM82 °FClear.10 mph51%29.90 "Hg10 mi
1:52 AM81 °FClear.8 mph53%29.91 "Hg10 mi
12:52 AM82 °FClear.9 mph55%29.90 "Hg10 mi
11:52 PM
Tue, Jul 28
83 °FClear.8 mph53%29.90 "Hg10 mi
10:52 PM85 °FClear.9 mph50%29.88 "Hg10 mi
9:52 PM86 °FClear.9 mph48%29.85 "Hg10 mi
8:52 PM90 °FSunny.8 mph42%29.83 "Hg10 mi
7:52 PM93 °FSunny.15 mph37%29.83 "Hg10 mi
6:52 PM96 °FSunny.14 mph35%29.82 "Hg10 mi
5:52 PM97 °FSunny.17 mph35%29.82 "Hg10 mi
4:52 PM99 °FScattered clouds.12 mph34%29.83 "Hg10 mi
3:52 PM97 °FSunny.13 mph36%29.85 "Hg10 mi
Weather by CustomWeather, © 2015

See weather overviewHow to use our weather pages